Orbital Elements at Epoch 2459200.5 (2020-Dec-17.0) TDB
Reference: JPL 21 (heliocentric ecliptic J2000)
Element | Value | Uncertainty (1-sigma) | Units |
e | .134931075208601 | 5.2672e-08 | |
a | 2.276372969379462 | 8.7165e-09 | au |
q | 1.969219517045296 | 1.2376e-07 | au |
i | 6.526659330809796 | 5.0082e-06 | deg |
node | 43.8713599017935 | 3.8699e-05 | deg |
peri | 3.511782559150619 | 4.2913e-05 | deg |
M | 347.9174388035186 | 1.8906e-05 | deg |
tp | 2459242.603680315527 (2021-Jan-28.10368032) | 6.5956e-05 | TDB |
period | 1254.479465661958 3.43 | 7.2053e-06 1.973e-08 | d yr |
n | .2869716163987083 | 1.6483e-09 | deg/d |
Q | 2.583526421713629 | 9.8926e-09 | au |
|
| | Orbit Determination Parameters
Additional Information
|